User: anonymous   Login
Location: Muenchen
(48.1800°N, 11.5800°E)
Time: 06:15:50
(UTC+01:00)
Language:

Iridium 37 - Orbit

View from above orbital plane
View from above orbital plane
View from above satellite
View from above satellite

Ground track
Ground track

The orbit data is extracted from the following two-line orbital elements,

1 24968U 97056D   15085.53912345  .00000178  00000-0  56571-4 0  9991
2 24968 086.3935 298.9623 0002005 088.4862 271.6564 14.34219073915917
Epoch (UTC): 26 March 2015 12:56:20
Eccentricity: 0.0002005
inclination: 86.3935°
perigee height: 776 km
apogee height: 779 km
right ascension of ascending node: 298.9623°
argument of perigee: 88.4862°
revolutions per day: 14.34219073
mean anomaly at epoch: 271.6564°
orbit number at epoch: 91591

The dashed part of the orbit path shows where the satellite is in the earth's shadow,  

DLR